Location: Emblem
(62.4273°N, 6.4710°E)
Time: 02:28:08
(UTC+02:00)

UWE-3 - Pass Details

Date: 30 March 2023
Orbit: 577 x 669 km, 97.7° (Epoch: 06 June)

Event Time Altitude Azimuth Distance (km) Brightness Sun altitude
Rises 04:26:00 0° 18° (NNE) 3,022 ? -16.8°
Reaches altitude 10° 04:28:20 10° 24° (NNE) 2,094 ? -16.6°
Maximum altitude 04:32:47 50° 100° (E) 840 ? -16.2°
Enters shadow 04:36:38 13° 174° (S) 1,852 ? -15.9°
